Weather History for Visalia, CA

Change the Weather History Date:

Wednesday, April 23, 2014

  Actual Average Record
Temperature  
Mean Temperature 60 °F -  
Max Temperature 73 °F 75 °F 97 °F (1954)
Min Temperature 46 °F 49 °F 39 °F (1932)
Degree Days  
Heating Degree Days 6    
Growing Degree Days 10 (Base 50)    
Moisture  
Dew Point 37 °F    
Average Humidity 45    
Maximum Humidity 66    
Minimum Humidity 25    
Precipitation  
Precipitation 0.00 in - - ()
Sea Level Pressure  
Sea Level Pressure 30.05 in    
Wind  
Wind Speed 9 mph (NW)    
Max Wind Speed 15 mph    
Max Gust Speed 18 mph    
Visibility 10 miles    
Events      
Averages and records for this station are not official NWS values.
T = Trace of Precipitation, MM = Missing Value Source: NWS Daily Summary

Daily Weather History Graph

Daily Weather History Graph

Search for Another Location

Airport:

Trip Planner

Search our weather history database for the weather conditions in past years. The results will help you decide how hot, cold, wet, or windy it might be!

Date:

Astronomy

Apr. 23, 2014 Rise Set
Actual Time 6:13 AM PDT 7:38 PM PDT
Civil Twilight 5:46 AM PDT 8:05 PM PDT
Nautical Twilight 5:14 AM PDT 8:38 PM PDT
Astronomical Twilight 4:40 AM PDT 9:12 PM PDT
Moon 2:38 AM PDT 2:02 PM PDT
Length of Visible Light 14h 18m
Length of Day
13h 24m
Waning Crescent, 34% of the Moon is Illuminated
Apr 23
Waning Crescent
Apr 28
New
May 6
First Quarter
May 14
Full
May 21
Last Quarter

Hourly Weather History & Observations

Time (PDT) Temp. Windchill Dew Point Humidity Pressure Visibility Wind Dir Wind Speed Gust Speed Precip Events Conditions
12:15 AM 53.6 °F - 35.6 °F 51% 30.03 in 10.0 mi NW 11.5 mph - N/A   Clear
12:35 AM 55.4 °F - 35.6 °F 47% 30.03 in 10.0 mi NW 13.8 mph - N/A   Clear
12:55 AM 55.4 °F - 35.6 °F 47% 30.03 in 10.0 mi NW 12.7 mph - N/A   Clear
1:15 AM 53.6 °F - 35.6 °F 51% 30.04 in 10.0 mi NW 11.5 mph - N/A   Clear
1:35 AM 51.8 °F - 35.6 °F 54% 30.04 in 10.0 mi NW 8.1 mph - N/A   Clear
1:55 AM 51.8 °F - 35.6 °F 54% 30.05 in 10.0 mi NW 6.9 mph - N/A   Clear
2:15 AM 51.8 °F - 35.6 °F 54% 30.05 in 10.0 mi WNW 6.9 mph - N/A   Clear
2:35 AM 51.8 °F - 35.6 °F 54% 30.04 in 10.0 mi NW 10.4 mph - N/A   Clear
2:55 AM 51.8 °F - 35.6 °F 54% 30.04 in 10.0 mi NW 11.5 mph - N/A   Clear
3:15 AM 50.0 °F - 35.6 °F 58% 30.04 in 10.0 mi NW 10.4 mph - N/A   Clear
3:35 AM 50.0 °F - 35.6 °F 58% 30.04 in 10.0 mi NW 10.4 mph - N/A   Clear
3:55 AM 48.2 °F - 35.6 °F 62% 30.04 in 10.0 mi WNW 5.8 mph - N/A   Clear
4:15 AM 48.2 °F - 35.6 °F 62% 30.05 in 10.0 mi NW 8.1 mph - N/A   Clear
4:35 AM 48.2 °F - 35.6 °F 62% 30.04 in 10.0 mi NW 6.9 mph - N/A   Clear
4:55 AM 48.2 °F - 35.6 °F 62% 30.06 in 10.0 mi NW 6.9 mph - N/A   Clear
5:15 AM 48.2 °F - 35.6 °F 62% 30.06 in 10.0 mi NW 8.1 mph - N/A   Clear
5:35 AM 46.4 °F 42.4 °F 35.6 °F 66% 30.06 in 10.0 mi NNW 8.1 mph - N/A   Clear
5:55 AM 46.4 °F 44.3 °F 35.6 °F 66% 30.06 in 10.0 mi North 4.6 mph - N/A   Clear
6:15 AM 46.4 °F 42.9 °F 35.6 °F 66% 30.07 in 10.0 mi NNW 6.9 mph - N/A   Clear
6:35 AM 46.4 °F 43.5 °F 35.6 °F 66% 30.07 in 10.0 mi NNW 5.8 mph - N/A   Clear
6:55 AM 48.2 °F - 35.6 °F 62% 30.08 in 10.0 mi NNW 6.9 mph - N/A   Clear
7:15 AM 48.2 °F - 35.6 °F 62% 30.08 in 10.0 mi NNW 8.1 mph - N/A   Clear
7:35 AM 51.8 °F - 37.4 °F 58% 30.09 in 10.0 mi NNW 8.1 mph - N/A   Clear
7:55 AM 51.8 °F - 35.6 °F 54% 30.09 in 10.0 mi NNW 8.1 mph - N/A   Clear
8:15 AM 51.8 °F - 37.4 °F 58% 30.09 in 10.0 mi NNW 8.1 mph - N/A   Clear
8:35 AM 53.6 °F - 37.4 °F 54% 30.09 in 10.0 mi NNW 5.8 mph - N/A   Clear
8:55 AM 53.6 °F - 37.4 °F 54% 30.09 in 10.0 mi Calm Calm - N/A   Clear
9:15 AM 53.6 °F - 37.4 °F 54% 30.09 in 10.0 mi Calm Calm - N/A   Clear
9:35 AM 55.4 °F - 39.2 °F 54% 30.10 in 10.0 mi WSW 6.9 mph - N/A   Clear
10:15 AM 57.2 °F - 39.2 °F 51% 30.10 in 10.0 mi Calm Calm - N/A   Clear
10:35 AM 57.2 °F - 39.2 °F 51% 30.10 in 10.0 mi NW 6.9 mph - N/A   Clear
10:55 AM 59.0 °F - 39.2 °F 48% 30.10 in 10.0 mi NNW 6.9 mph - N/A   Clear
11:15 AM 60.8 °F - 39.2 °F 45% 30.10 in 10.0 mi Calm Calm - N/A   Clear
11:35 AM 62.6 °F - 39.2 °F 42% 30.10 in 10.0 mi NNW 6.9 mph - N/A   Clear
11:55 AM 62.6 °F - 39.2 °F 42% 30.10 in 10.0 mi NE 3.5 mph - N/A   Clear
12:15 PM 64.4 °F - 41.0 °F 42% 30.09 in 10.0 mi NNW 5.8 mph - N/A   Clear
12:35 PM 64.4 °F - 41.0 °F 42% 30.08 in 10.0 mi North 5.8 mph - N/A   Clear
1:15 PM 66.2 °F - 42.8 °F 43% 30.07 in 10.0 mi WSW 8.1 mph - N/A   Clear
1:35 PM 66.2 °F - 41.0 °F 40% 30.07 in 10.0 mi NNW 6.9 mph - N/A   Clear
1:55 PM 68.0 °F - 41.0 °F 37% 30.07 in 10.0 mi WNW 6.9 mph - N/A   Clear
2:15 PM 69.8 °F - 41.0 °F 35% 30.06 in 10.0 mi NE 9.2 mph - N/A   Clear
2:35 PM 69.8 °F - 39.2 °F 33% 30.06 in 10.0 mi North 4.6 mph - N/A   Clear
2:55 PM 69.8 °F - 41.0 °F 35% 30.05 in 10.0 mi NW 3.5 mph - N/A   Clear
3:15 PM 71.6 °F - 39.2 °F 31% 30.05 in 10.0 mi NNE 8.1 mph - N/A   Clear
3:35 PM 69.8 °F - 39.2 °F 33% 30.04 in 10.0 mi NNW 11.5 mph - N/A   Clear
3:55 PM 71.6 °F - 39.2 °F 31% 30.03 in 10.0 mi North 15.0 mph 18.4 mph N/A   Clear
4:15 PM 71.6 °F - 39.2 °F 31% 30.03 in 10.0 mi North 9.2 mph - N/A   Clear
4:35 PM 71.6 °F - 37.4 °F 29% 30.02 in 10.0 mi North 10.4 mph 16.1 mph N/A   Clear
4:55 PM 71.6 °F - 35.6 °F 27% 30.02 in 10.0 mi North 9.2 mph - N/A   Clear
5:15 PM 71.6 °F - 35.6 °F 27% 30.01 in 10.0 mi North 9.2 mph - N/A   Clear
5:35 PM 73.4 °F - 35.6 °F 25% 30.01 in 10.0 mi NW 10.4 mph - N/A   Clear
5:55 PM 73.4 °F - 35.6 °F 25% 30.01 in 10.0 mi NNW 10.4 mph 16.1 mph N/A   Clear
6:15 PM 71.6 °F - 33.8 °F 25% 30.01 in 10.0 mi NNW 11.5 mph - N/A   Clear
6:35 PM 71.6 °F - 33.8 °F 25% 30.01 in 10.0 mi NNW 10.4 mph - N/A   Clear
6:55 PM 71.6 °F - 33.8 °F 25% 30.01 in 10.0 mi NW 8.1 mph - N/A   Clear
7:15 PM 69.8 °F - 35.6 °F 28% 30.01 in 10.0 mi WNW 6.9 mph - N/A   Clear
7:35 PM 66.2 °F - 35.6 °F 32% 30.01 in 10.0 mi WNW 8.1 mph - N/A   Clear
7:55 PM 66.2 °F - 35.6 °F 32% 30.02 in 10.0 mi WNW 8.1 mph - N/A   Clear
8:15 PM 64.4 °F - 35.6 °F 34% 30.02 in 10.0 mi WNW 8.1 mph - N/A   Clear
8:35 PM 62.6 °F - 37.4 °F 39% 30.03 in 10.0 mi NW 9.2 mph - N/A   Clear
8:55 PM 62.6 °F - 37.4 °F 39% 30.03 in 10.0 mi NW 9.2 mph - N/A   Clear
9:15 PM 62.6 °F - 37.4 °F 39% 30.03 in 10.0 mi NW 8.1 mph - N/A   Clear
9:35 PM 62.6 °F - 37.4 °F 39% 30.04 in 10.0 mi NW 8.1 mph - N/A   Clear
9:55 PM 62.6 °F - 37.4 °F 39% 30.04 in 10.0 mi NW 10.4 mph - N/A   Clear
10:15 PM 62.6 °F - 35.6 °F 37% 30.05 in 10.0 mi NW 8.1 mph - N/A   Clear
10:35 PM 60.8 °F - 35.6 °F 39% 30.04 in 10.0 mi NW 8.1 mph - N/A   Clear
10:55 PM 60.8 °F - 37.4 °F 42% 30.04 in 10.0 mi NW 6.9 mph - N/A   Clear
11:15 PM 59.0 °F - 37.4 °F 45% 30.04 in 10.0 mi NW 6.9 mph - N/A   Clear
11:35 PM 59.0 °F - 37.4 °F 45% 30.04 in 10.0 mi NW 6.9 mph - N/A   Clear
11:55 PM 57.2 °F - 37.4 °F 48% 30.04 in 10.0 mi NW 6.9 mph - N/A   Clear